Location: ?????????
(54.7630°N, 39.4991°E)
Time: 17:30:52
(UTC+00:00)

BREEZE-M DEB (TANK) - Pass Details

Date: 14 April 2026
Orbit: 312 x 13096 km, 49.6° (Epoch: 16 May)

Event Time Altitude Azimuth Distance (km) Brightness Sun altitude
Rises 17:14:41 0° 228° (SW) 2,039 6.0 -7.6°
Reaches altitude 10° 17:16:31 10° 209° (SSW) 1,237 4.6 -7.8°
Maximum altitude 17:18:25 22° 152° (SSE) 916 3.5 -8.0°
Drops below altitude 10° 17:21:16 10° 99° (E) 1,900 5.0 -8.4°
Enters shadow 17:21:42 - 96° (E) 2,098 5.2 -8.5°
